When you browse on this site, cookies collect data to enhance your experience and personalize the content and advertising you see.
Visit our Privacy Policy to learn more. By continuing to use the site, you agree to this use of cookies and data.
  • In Latvia
  • List of Countries
  • For 7 days
  • Water Temperature
  • Weather Map
  • Weather Widgets
  • user-avatar
    Login

    Hourly Weather Duabo

    Today, 15 December, Sunday

    Time Temperature Precipitation Wind Pressure Humidity
    00:00 +25°C° 0 mm 1 mps 740 mmHg 93%
    01:00 +23°C° 0 mm 0 mps 739 mmHg 93%
    02:00 +23°C° 0 mm 0 mps 739 mmHg 93%
    03:00 +23°C° 0 mm 0 mps 739 mmHg 94%
    04:00 +22°C° 0 mm 0 mps 739 mmHg 94%
    05:00 +22°C° 0 mm 0 mps 739 mmHg 94%
    06:00 +24°C° 0 mm 0 mps 739 mmHg 88%
    07:00 +25°C° 0 mm 0 mps 740 mmHg 82%
    08:00 +27°C° 0 mm 0 mps 740 mmHg 76%
    09:00 +30°C° 0 mm 1 mps 740 mmHg 67%
    10:00 +32°C° 0 mm 1 mps 740 mmHg 58%
    11:00 +35°C° 0 mm 2 mps 739 mmHg 49%
    12:00 +36°C° 0 mm 2 mps 739 mmHg 46%
    13:00 +36°C° 0 mm 2 mps 738 mmHg 43%
    14:00 +37°C° 0 mm 2 mps 737 mmHg 39%
    15:00 +34°C° 0 mm 1 mps 737 mmHg 46%
    16:00 +33°C° 0 mm 1 mps 737 mmHg 52%
    17:00 +31°C° 0 mm 1 mps 738 mmHg 59%
    18:00 +30°C° 0 mm 1 mps 738 mmHg 67%
    19:00 +28°C° 0 mm 2 mps 739 mmHg 75%
    20:00 +27°C° 0 mm 2 mps 739 mmHg 83%
    21:00 +27°C° 0 mm 1 mps 739 mmHg 85%
    22:00 +26°C° 0 mm 1 mps 739 mmHg 88%
    23:00 +24°C° 0 mm 0 mps 739 mmHg 90%

    Tomorrow, 16 December, Monday

    Time Temperature Precipitation Wind Pressure Humidity
    00:00 +23°C° 0 mm 0 mps 739 mmHg 91%
    01:00 +23°C° 0 mm 0 mps 738 mmHg 93%
    02:00 +23°C° 0 mm 0 mps 738 mmHg 94%
    03:00 +23°C° 0 mm 0 mps 738 mmHg 95%
    04:00 +23°C° 0 mm 0 mps 738 mmHg 96%
    05:00 +22°C° 0 mm 0 mps 738 mmHg 97%
    06:00 +24°C° 0 mm 0 mps 739 mmHg 89%
    07:00 +26°C° 0 mm 0 mps 739 mmHg 81%
    08:00 +28°C° 0 mm 0 mps 740 mmHg 73%
    09:00 +29°C° 0 mm 0 mps 739 mmHg 69%
    10:00 +30°C° 0 mm 0 mps 739 mmHg 64%
    11:00 +31°C° 0 mm 0 mps 739 mmHg 60%
    12:00 +31°C° 0.2 mm 0 mps 738 mmHg 58%
    13:00 +32°C° 0.2 mm 0 mps 738 mmHg 56%
    14:00 +32°C° 0.2 mm 0 mps 737 mmHg 54%
    15:00 +31°C° 0.2 mm 0 mps 737 mmHg 60%
    16:00 +31°C° 0.2 mm 1 mps 737 mmHg 67%
    17:00 +29°C° 0.2 mm 1 mps 737 mmHg 73%
    18:00 +28°C° 0 mm 1 mps 738 mmHg 77%
    19:00 +28°C° 0 mm 1 mps 738 mmHg 82%
    20:00 +27°C° 0 mm 2 mps 739 mmHg 86%
    21:00 +26°C° 0 mm 1 mps 739 mmHg 88%
    22:00 +26°C° 0 mm 1 mps 739 mmHg 91%
    23:00 +26°C° 0 mm 1 mps 739 mmHg 93%

    Day after tomorrow, 17 December, Tuesday

    Time Temperature Precipitation Wind Pressure Humidity
    00:00 +25°C° 0.1 mm 1 mps 738 mmHg 94%
    01:00 +23°C° 0.1 mm 0 mps 738 mmHg 95%
    02:00 +23°C° 0.1 mm 0 mps 738 mmHg 96%
    03:00 +23°C° 0.4 mm 0 mps 738 mmHg 96%
    04:00 +23°C° 0.4 mm 0 mps 738 mmHg 96%
    05:00 +23°C° 0.4 mm 0 mps 738 mmHg 96%
    06:00 +26°C° 0 mm 1 mps 739 mmHg 90%
    07:00 +27°C° 0 mm 1 mps 739 mmHg 83%
    08:00 +29°C° 0 mm 1 mps 740 mmHg 76%
    09:00 +30°C° 0 mm 1 mps 740 mmHg 71%
    10:00 +31°C° 0 mm 1 mps 739 mmHg 66%
    11:00 +32°C° 0 mm 1 mps 739 mmHg 61%
    12:00 +32°C° 0.3 mm 1 mps 739 mmHg 61%
    13:00 +32°C° 0.3 mm 1 mps 738 mmHg 60%
    14:00 +31°C° 0.3 mm 0 mps 738 mmHg 60%
    15:00 +31°C° 0.4 mm 1 mps 738 mmHg 66%
    16:00 +30°C° 0.4 mm 1 mps 738 mmHg 72%
    17:00 +29°C° 0.4 mm 1 mps 738 mmHg 79%
    18:00 +28°C° 0.3 mm 1 mps 738 mmHg 83%
    19:00 +27°C° 0.3 mm 1 mps 739 mmHg 88%
    20:00 +26°C° 0.3 mm 1 mps 739 mmHg 93%
    21:00 +26°C° 0 mm 1 mps 739 mmHg 94%
    22:00 +25°C° 0 mm 1 mps 739 mmHg 95%
    23:00 +25°C° 0 mm 1 mps 739 mmHg 97%

    18 December, Wednesday

    Time Temperature Precipitation Wind Pressure Humidity
    00:00 +23°C° 0 mm 0 mps 739 mmHg 97%
    01:00 +23°C° 0 mm 0 mps 738 mmHg 98%
    02:00 +22°C° 0 mm 0 mps 738 mmHg 98%
    03:00 +22°C° 0 mm 0 mps 738 mmHg 98%
    04:00 +22°C° 0 mm 0 mps 738 mmHg 98%
    05:00 +22°C° 0 mm 0 mps 739 mmHg 98%
    06:00 +24°C° 0 mm 0 mps 739 mmHg 92%
    07:00 +25°C° 0 mm 0 mps 740 mmHg 85%
    08:00 +29°C° 0 mm 1 mps 740 mmHg 79%
    09:00 +29°C° 0 mm 1 mps 740 mmHg 74%
    10:00 +30°C° 0 mm 1 mps 740 mmHg 70%
    11:00 +31°C° 0 mm 1 mps 740 mmHg 65%
    12:00 +31°C° 0 mm 1 mps 739 mmHg 63%
    13:00 +32°C° 0 mm 1 mps 739 mmHg 61%
    14:00 +32°C° 0 mm 1 mps 738 mmHg 59%
    15:00 +31°C° 0.1 mm 1 mps 738 mmHg 63%
    16:00 +30°C° 0.1 mm 1 mps 738 mmHg 67%
    17:00 +29°C° 0.1 mm 1 mps 738 mmHg 71%
    18:00 +28°C° 0 mm 1 mps 739 mmHg 76%
    19:00 +27°C° 0 mm 1 mps 739 mmHg 81%
    20:00 +26°C° 0 mm 1 mps 740 mmHg 86%
    21:00 +26°C° 0 mm 1 mps 740 mmHg 89%
    22:00 +25°C° 0 mm 1 mps 740 mmHg 92%
    23:00 +25°C° 0 mm 1 mps 739 mmHg 95%

    19 December, Thursday

    Time Temperature Precipitation Wind Pressure Humidity
    00:00 +23°C° 0 mm 0 mps 739 mmHg 96%
    01:00 +23°C° 0 mm 0 mps 739 mmHg 97%
    02:00 +22°C° 0 mm 0 mps 739 mmHg 97%
    03:00 +22°C° 0 mm 0 mps 739 mmHg 98%
    04:00 +22°C° 0 mm 0 mps 739 mmHg 98%
    05:00 +22°C° 0 mm 0 mps 739 mmHg 98%
    06:00 +26°C° 0 mm 1 mps 740 mmHg 91%
    07:00 +27°C° 0 mm 1 mps 740 mmHg 83%
    08:00 +29°C° 0 mm 1 mps 740 mmHg 76%
    09:00 +31°C° 0 mm 1 mps 740 mmHg 68%
    10:00 +33°C° 0 mm 1 mps 740 mmHg 60%
    11:00 +35°C° 0 mm 1 mps 740 mmHg 53%
    12:00 +34°C° 0.6 mm 1 mps 739 mmHg 55%
    13:00 +33°C° 0.6 mm 1 mps 738 mmHg 57%
    14:00 +33°C° 0.6 mm 1 mps 738 mmHg 59%
    15:00 +32°C° 0.2 mm 1 mps 738 mmHg 64%
    16:00 +31°C° 0.2 mm 1 mps 738 mmHg 69%
    17:00 +30°C° 0.2 mm 1 mps 738 mmHg 74%
    18:00 +28°C° 0.2 mm 1 mps 738 mmHg 79%
    19:00 +27°C° 0.2 mm 2 mps 739 mmHg 85%
    20:00 +26°C° 0.2 mm 2 mps 740 mmHg 90%
    21:00 +26°C° 0 mm 1 mps 740 mmHg 92%
    22:00 +26°C° 0 mm 1 mps 740 mmHg 94%
    23:00 +25°C° 0 mm 1 mps 740 mmHg 96%

    20 December, Friday

    Time Temperature Precipitation Wind Pressure Humidity
    00:00 +25°C° 0 mm 1 mps 740 mmHg 96%
    01:00 +25°C° 0 mm 1 mps 739 mmHg 97%
    02:00 +25°C° 0 mm 1 mps 739 mmHg 98%
    03:00 +25°C° 0 mm 1 mps 739 mmHg 97%
    04:00 +25°C° 0 mm 1 mps 739 mmHg 97%
    05:00 +25°C° 0 mm 1 mps 739 mmHg 97%
    06:00 +26°C° 0 mm 1 mps 739 mmHg 89%
    07:00 +28°C° 0 mm 1 mps 740 mmHg 82%
    08:00 +29°C° 0 mm 1 mps 740 mmHg 74%
    09:00 +30°C° 0 mm 1 mps 740 mmHg 69%
    10:00 +31°C° 0 mm 1 mps 740 mmHg 65%
    11:00 +32°C° 0 mm 1 mps 740 mmHg 60%
    12:00 +33°C° 0 mm 1 mps 739 mmHg 58%
    13:00 +33°C° 0 mm 1 mps 738 mmHg 57%
    14:00 +33°C° 0 mm 1 mps 737 mmHg 55%
    15:00 +32°C° 0.2 mm 1 mps 737 mmHg 60%
    16:00 +31°C° 0.2 mm 1 mps 737 mmHg 66%
    17:00 +30°C° 0.2 mm 1 mps 738 mmHg 71%
    18:00 +28°C° 0.1 mm 1 mps 738 mmHg 77%
    19:00 +27°C° 0.1 mm 1 mps 738 mmHg 84%
    20:00 +26°C° 0.1 mm 1 mps 739 mmHg 90%
    21:00 +26°C° 0 mm 1 mps 739 mmHg 92%
    22:00 +25°C° 0 mm 1 mps 739 mmHg 94%
    23:00 +25°C° 0 mm 1 mps 739 mmHg 95%
    Show more